Weather History for Palacios, TX

Change the Weather History Date:

Wednesday, April 3, 2013

  Actual Average Record
Temperature  
Mean Temperature 65 °F -  
Max Temperature 73 °F 75 °F 87 °F (1974)
Min Temperature 57 °F 58 °F 32 °F (1987)
Growing Degree Days 15 (Base 50)    
Moisture  
Dew Point 58 °F    
Average Humidity 80    
Maximum Humidity 90    
Minimum Humidity 65    
Precipitation  
Precipitation 0.25 in - - ()
Sea Level Pressure  
Sea Level Pressure 29.94 in    
Wind  
Wind Speed 15 mph (North)    
Max Wind Speed 29 mph    
Max Gust Speed 38 mph    
Visibility 9 miles    
Events Rain , Thunderstorm    
Averages and records for this station are not official NWS values.
T = Trace of Precipitation, MM = Missing Value Source: NWS Daily Summary

Daily Weather History Graph

Daily Weather History Graph

Search for Another Location

Airport:

Trip Planner

Search our weather history database for the weather conditions in past years. The results will help you decide how hot, cold, wet, or windy it might be!

Date:

Astronomy

Apr. 03, 2013 Rise Set
Actual Time 7:12 AM CDT 7:44 PM CDT
Civil Twilight 6:48 AM CDT 8:08 PM CDT
Nautical Twilight 6:20 AM CDT 8:36 PM CDT
Astronomical Twilight 5:52 AM CDT 9:04 PM CDT
Moon 2:23 AM CDT (4/3) 1:27 PM CDT (4/3)
Length of Visible Light 13h 19m
Length of Day
12h 32m
Last Quarter, 44% of the Moon is Illuminated
Apr 3
Last Quarter
Apr 10
New
Apr 18
First Quarter
Apr 25
Full
May 2
Last Quarter

Hourly Weather History & Observations

Time (CDT) Temp. Dew Point Humidity Pressure Visibility Wind Dir Wind Speed Gust Speed Precip Events Conditions
12:53 AM 66.9 °F 63.0 °F 87% 29.85 in 10.0 mi NE 9.2 mph - N/A   Overcast
1:53 AM 66.9 °F 63.0 °F 87% 29.88 in 10.0 mi NNW 9.2 mph - N/A   Overcast
2:10 AM 66.2 °F 62.6 °F 88% 29.88 in 10.0 mi NW 13.8 mph - N/A Thunderstorm Overcast
2:22 AM 66.2 °F 62.6 °F 88% 29.93 in 2.5 mi NW 28.8 mph 35.7 mph 0.05 in Rain , Thunderstorm Heavy Rain
2:31 AM 64.4 °F 60.8 °F 88% 29.92 in 1.8 mi NW 21.9 mph 38.0 mph 0.16 in Rain , Thunderstorm Heavy Thunderstorms and Rain
2:35 AM 64.4 °F 60.8 °F 88% 29.91 in 2.0 mi NNW 18.4 mph 35.7 mph 0.18 in Rain , Thunderstorm Heavy Thunderstorms and Rain
2:44 AM 64.4 °F 60.8 °F 88% 29.89 in 4.0 mi NNW 18.4 mph 26.5 mph 0.21 in Rain , Thunderstorm Heavy Rain
2:53 AM 64.9 °F 62.1 °F 90% 29.90 in 8.0 mi NNW 15.0 mph - 0.22 in Rain , Thunderstorm Light Rain
3:53 AM 64.0 °F 59.0 °F 84% 29.83 in 10.0 mi NE 16.1 mph - 0.00 in   Partly Cloudy
4:53 AM 64.9 °F 59.0 °F 81% 29.75 in 10.0 mi ENE 15.0 mph 23.0 mph N/A   Clear
5:53 AM 63.0 °F 59.0 °F 87% 29.83 in 10.0 mi Calm Calm - N/A   Partly Cloudy
6:22 AM 62.6 °F 59.0 °F 88% 29.84 in 10.0 mi NNW 8.1 mph - N/A   Mostly Cloudy
6:53 AM 62.1 °F 59.0 °F 90% 29.87 in 10.0 mi NW 12.7 mph - N/A   Mostly Cloudy
7:01 AM 62.6 °F 59.0 °F 88% 29.87 in 10.0 mi NNW 11.5 mph - N/A   Mostly Cloudy
7:42 AM 62.6 °F 59.0 °F 88% 29.89 in 10.0 mi North 8.1 mph - N/A   Mostly Cloudy
8:53 AM 64.9 °F 60.1 °F 84% 29.91 in 10.0 mi North 15.0 mph - N/A   Overcast
9:53 AM 66.0 °F 61.0 °F 84% 29.94 in 10.0 mi North 17.3 mph - N/A   Overcast
10:53 AM 66.9 °F 60.1 °F 79% 29.94 in 10.0 mi North 13.8 mph - N/A   Overcast
11:37 AM 71.6 °F 60.8 °F 69% 29.93 in 10.0 mi North 17.3 mph - N/A   Mostly Cloudy
11:53 AM 71.1 °F 61.0 °F 70% 29.93 in 10.0 mi NNE 15.0 mph - N/A   Mostly Cloudy
12:21 PM 71.6 °F 60.8 °F 69% 29.92 in 10.0 mi NNE 15.0 mph - N/A   Overcast
12:28 PM 73.4 °F 60.8 °F 65% 29.92 in 10.0 mi NNE 16.1 mph - N/A   Overcast
12:53 PM 71.1 °F 61.0 °F 70% 29.93 in 10.0 mi NNE 15.0 mph - N/A   Overcast
1:50 PM 68.0 °F 60.8 °F 78% 29.94 in 8.0 mi North 16.1 mph - N/A   Overcast
1:53 PM 68.0 °F 60.1 °F 76% 29.94 in 8.0 mi North 13.8 mph - N/A   Overcast
2:06 PM 68.0 °F 60.8 °F 78% 29.93 in 9.0 mi North 12.7 mph - N/A   Overcast
2:53 PM 70.0 °F 60.1 °F 71% 29.93 in 10.0 mi North 19.6 mph - N/A   Overcast
3:11 PM 68.0 °F 59.0 °F 73% 29.94 in 10.0 mi North 18.4 mph - N/A   Overcast
3:53 PM 66.9 °F 57.9 °F 73% 29.91 in 10.0 mi North 16.1 mph - N/A   Overcast
4:00 PM 66.2 °F 57.2 °F 73% 29.91 in 10.0 mi North 17.3 mph - N/A   Mostly Cloudy
4:53 PM 66.9 °F 57.9 °F 73% 29.91 in 10.0 mi NNE 12.7 mph - N/A   Mostly Cloudy
5:23 PM 66.2 °F 57.2 °F 73% 29.92 in 10.0 mi North 13.8 mph - N/A   Mostly Cloudy
5:53 PM 66.9 °F 57.0 °F 70% 29.93 in 10.0 mi NNW 18.4 mph 24.2 mph N/A   Overcast
6:24 PM 62.6 °F 55.4 °F 77% 29.95 in 10.0 mi North 20.7 mph 29.9 mph N/A   Overcast
6:53 PM 61.0 °F 54.0 °F 78% 29.91 in 10.0 mi North 19.6 mph 29.9 mph N/A   Overcast
7:46 PM 60.8 °F 53.6 °F 77% 29.99 in 10.0 mi North 19.6 mph - N/A   Overcast
7:53 PM 60.1 °F 53.1 °F 78% 29.99 in 10.0 mi NNW 19.6 mph - N/A   Overcast
8:43 PM 59.0 °F 51.8 °F 77% 30.00 in 10.0 mi North 17.3 mph - N/A   Mostly Cloudy
8:53 PM 59.0 °F 52.0 °F 78% 30.01 in 10.0 mi North 17.3 mph - N/A   Overcast
9:38 PM 57.2 °F 51.8 °F 82% 30.06 in 7.0 mi North 13.8 mph 21.9 mph 0.03 in Rain , Thunderstorm Rain
9:49 PM 57.2 °F 51.8 °F 82% 30.06 in 10.0 mi North 16.1 mph - 0.03 in   Overcast
9:53 PM 57.0 °F 52.0 °F 83% 30.06 in 10.0 mi North 16.1 mph - 0.03 in   Overcast
10:01 PM 57.2 °F 51.8 °F 82% 30.07 in 10.0 mi North 17.3 mph - N/A Thunderstorm Overcast
10:16 PM 57.2 °F 53.6 °F 88% 30.07 in 10.0 mi North 13.8 mph - N/A   Overcast
10:43 PM 57.2 °F 51.8 °F 82% 30.08 in 10.0 mi North 13.8 mph - N/A   Overcast
10:53 PM 57.0 °F 52.0 °F 83% 30.09 in 10.0 mi North 15.0 mph - N/A   Overcast
11:15 PM 57.2 °F 51.8 °F 82% 30.09 in 10.0 mi North 13.8 mph - N/A   Overcast
11:53 PM 57.0 °F 51.1 °F 81% 30.10 in 10.0 mi North 15.0 mph - N/A   Overcast